User: anonymous   Login
Location: Bieg
(49.3499°N, 10.3835°E)
Time: 08:19:57
(UTC+00:00)
Language:

Cosmos 1703 - Orbit

View from above orbital plane
View from above orbital plane
View from above satellite
View from above satellite

Ground track
Ground track

The orbit data is extracted from the following two-line orbital elements,

1 16262U 85108A   24197.77001633  .00011654  00000-0  46554-3 0  9993
2 16262  82.4692 218.7686 0007698   8.2005 351.9357 15.24985700109557
Epoch (UTC): 15 July 2024 18:28:49
Eccentricity: 0.0007698
inclination: 82.4692°
perigee height: 485 km
apogee height: 496 km
right ascension of ascending node: 218.7686°
argument of perigee: 8.2005°
revolutions per day: 15.24985700
mean anomaly at epoch: 351.9357°
orbit number at epoch: 10955

The dashed part of the orbit path shows where the satellite is in the earth's shadow,  

DLR